Home > Time Zones > World Clock > Weather > Spain > Cadiz > Past weeks

Flag for Spain Weather past 2 weeks in Cadiz, Cádiz, Spain

Now
66 °F

Passing clouds.


Feels Like: 66 °F
Forecast: 66 / 74 °F
Wind: 1 mph from North

Location: Rota Airport

Current Time: Sep 22, 2014 at 6:33:38 AM

Latest Report: Sep 22, 2014 at 6:00 AM


Visibility: N/A

Pressure: 29.98 "Hg

Humidity: 88%

Dew point: 63 °F

Location of CadizLocation

Historic Weather in Cadiz — Graph

°F

Cadiz temperature yesterday

Maximum temperature yesterday: 79 °F (at 1:00 PM)
Minimum temperature yesterday: 64 °F (at 8:00 AM)
Average temperature yesterday: 71 °F

Past Weeks' High & Low Weather Summary

 TemperatureHumidityPressure
High79 °F (Sep 7, 4:00 PM)94% (Sep 9, 4:00 AM)30.07 "Hg (Sep 9, 4:00 AM)
Low63 °F (Sep 9, 8:00 AM)54% (Sep 21, 1:00 PM)29.77 "Hg (Sep 16, 5:00 AM)
Average73 °F79%29.95 "Hg
* Reported Sep 7 5:00 AM — Sep 22 5:00 AM, Cadiz, Weather by CustomWeather, © 2014

Note: Actual official high and low records may vary slightly from our data, if they occured in-between our weather recording intervals... More about our weather records

Advertising

Cadiz weather history for previous 24 hours

 ConditionsComfort  
Time TempWeatherWind HumidityBarometerVisibility
5:00 AM
Sep 22
68 °FPassing clouds.6 mph83%29.98 "HgN/A
4:00 AM68 °FPassing clouds.No wind78%29.98 "HgN/A
3:00 AM66 °FPassing clouds.3 mph88%30.01 "HgN/A
2:00 AM66 °FClear.No wind94%30.01 "Hg10 mi
1:00 AM66 °FPassing clouds.No wind94%30.01 "HgN/A
12:00 AM68 °FPassing clouds.1 mph88%30.01 "HgN/A
11:00 PM
Sep 21
70 °FPassing clouds.No wind88%30.04 "HgN/A
10:00 PM70 °FPassing clouds.No wind88%30.01 "HgN/A
9:00 PM70 °FPassing clouds.1 mph88%30.01 "HgN/A
8:00 PM72 °FScattered clouds.No wind83%29.98 "HgN/A
7:00 PM72 °FLight rain. Scattered clouds.2 mph83%30.01 "HgN/A
6:00 PM75 °FScattered clouds.5 mph69%29.98 "HgN/A
5:00 PM75 °FScattered clouds.7 mph74%29.98 "HgN/A
4:00 PM75 °FBroken clouds.6 mph69%30.01 "HgN/A
3:00 PM79 °FPassing clouds.No wind65%30.01 "HgN/A
2:00 PM73 °FLight rain. Scattered clouds.5 mph74%30.01 "Hg6 mi
1:00 PM79 °FScattered clouds.5 mph54%30.01 "HgN/A
12:00 PM75 °FScattered clouds.5 mph65%30.04 "HgN/A
11:00 AM72 °FScattered clouds.6 mph78%30.04 "HgN/A
10:00 AM68 °FScattered clouds.5 mph88%30.04 "HgN/A
9:00 AM66 °FPassing clouds.1 mph88%30.01 "HgN/A
8:00 AM64 °FClear.2 mph88%29.98 "Hg10 mi
7:00 AM66 °FClear.3 mph83%29.98 "Hg10 mi
6:00 AM66 °FClear.2 mph83%29.98 "Hg10 mi
Weather by CustomWeather, © 2014

See weather overviewHow to use our weather pages